[[{"header":{"parameterUnit":"m.s-1","parameterCategory":1,"la1":30.2991,"la2":30.254,"lo1":-89.0895,"lo2":-89.0444,"dy":0.0017,"dx":0.0017,"nx":28,"ny":28,"refTime":"2025-11-30T03:00:00:Z","depth":0,"parameterNumber":2,"parameterNumberName":"U-component_of_WINDS"},"data":[0,0,0,0,0,0,0,0,0,0,0,0,0,0,0,0,0,0,0,0,0,0,0,0,0,0,0,0,0,0,0,0,0,0,0,0,0,0,0,0,0,0,0,0,0,0,0,0,0,0,0,0,0,0,0,0,0,0,-5.2593,-5.2594,0,-5.2673,-5.2674,-5.2675,-5.2658,-5.2656,-5.2655,-5.2653,-5.2731,-5.2735,-5.2738,0,0,0,0,0,0,0,0,0,0,0,0,0,-5.2424,-5.2428,-5.2593,-5.2594,-5.2595,-5.2673,-5.2674,-5.2675,-5.2658,-5.2656,-5.2654,-5.2653,-5.273,-5.2734,-5.2738,0,0,0,0,0,0,0,0,0,0,0,0,0,-5.25,-5.2429,-5.2593,-5.2596,-5.2597,-5.2673,-5.2674,-5.2675,-5.2658,-5.2656,-5.2654,-5.2652,-5.2729,-5.2734,-5.2739,-5.2815,0,0,-5.2755,-5.2757,0,0,0,0,0,0,0,0,-5.2496,-5.2506,-5.2595,-5.2596,-5.2597,-5.2653,-5.2643,-5.2722,-5.2659,-5.2635,-5.2653,-5.2651,-5.2707,-5.2714,-5.2733,-5.2819,-5.2822,-5.2755,-5.2758,-5.2761,-5.2762,0,0,0,0,0,0,0,-5.2491,-5.2503,-5.2625,-5.2596,-5.2598,-5.2593,-5.2601,-5.2658,-5.2682,-5.2637,-5.2636,-5.2646,-5.2707,-5.2728,-5.2735,-5.2823,-5.2755,-5.276,-5.2763,-5.2765,-5.2975,-5.2977,0,0,0,0,0,0,-5.2485,-5.2498,-5.2622,-5.2627,-5.254,-5.2598,-5.2607,-5.2637,-5.2682,-5.2686,-5.2648,-5.2645,-5.2721,-5.2729,-5.2738,-5.2829,-5.2761,-5.2765,-5.2768,-5.2972,-5.2975,-5.2978,0,0,0,0,0,0,-5.2481,-5.2496,-5.2619,-5.2563,-5.2578,-5.2603,-5.2637,-5.264,-5.2661,-5.269,-5.2694,-5.2665,-5.2719,-5.273,-5.2796,-5.2831,-5.2768,-5.2772,-5.2969,-5.2973,-5.2977,-5.3012,0,0,0,0,0,0,-5.2476,-5.2495,-5.2524,-5.2563,-5.2581,-5.2677,-5.264,-5.2643,-5.2671,-5.2668,-5.2707,-5.2711,-5.2718,-5.2789,-5.2801,-5.2837,-5.2777,-5.2966,-5.2971,-5.2975,-5.3007,-5.3016,-5.3024,0,0,0,0,0,-5.247,-5.253,-5.2526,-5.2541,-5.2619,-5.2679,-5.2688,-5.2696,-5.2674,-5.2703,-5.2722,-5.271,-5.2826,-5.2795,-5.281,-5.2847,-5.2964,-5.297,-5.2975,-5.3004,-5.3014,-5.3023,0,0,0,0,0,0,-5.2492,-5.2535,-5.2531,-5.2605,-5.2639,-5.2676,-5.2713,-5.2708,-5.2747,-5.2742,-5.275,-5.2759,-5.2825,-5.2844,-5.2809,-5.2924,-5.2892,-5.29,-5.2909,-5.2919,-5.2927,-5.292,-5.2781,0,0,0,0,0,-5.2506,-5.2552,-5.2587,-5.2649,-5.2667,-5.2687,-5.2714,-5.2717,-5.2751,-5.2765,-5.2788,-5.2821,-5.2865,-5.2893,-5.2936,-5.3011,-5.3019,-5.3045,-5.3053,-5.3059,-5.3065,-5.3106,-5.3117,-5.2996,-5.2996,-5.2996,0,0,-5.2534,-5.2564,-5.2592,-5.2655,-5.2681,-5.2727,-5.2699,-5.2749,-5.2784,-5.2772,-5.2835,-5.2854,-5.2891,-5.2962,-5.2995,-5.2979,-5.3101,-5.3066,-5.3071,-5.3074,-5.3113,-5.3124,-5.3135,-5.3,-5.2999,-5.2999,0,0,-5.2609,-5.2637,-5.2691,-5.2719,-5.276,-5.2774,-5.2787,-5.2826,-5.2838,-5.2902,-5.2894,-5.2935,-5.3011,-5.3038,-5.3061,-5.3149,-5.314,-5.3163,-5.3204,-5.3243,-5.3253,-5.3261,-5.3291,-5.3301,-5.317,-5.317,-5.317,0,-5.2638,-5.2709,-5.272,-5.2772,-5.2799,-5.2793,-5.2848,-5.2874,-5.2926,-5.2945,-5.2928,-5.3023,-5.3048,-5.3124,-5.3146,-5.3166,-5.318,-5.3157,-5.3251,-5.3259,-5.3267,-5.3295,-5.3307,-5.3172,-5.3172,-5.3172,-5.3172,0,-5.2743,-5.2792,-5.2831,-5.2883,-5.2915,-5.2968,-5.2986,-5.3018,-5.3019,-5.3035,-5.31,-5.313,-5.3178,-5.3197,-5.3199,-5.3275,-5.3264,-5.3249,-5.3216,-5.3281,-5.3307,-5.3319,-5.3176,-5.3175,-5.3174,-5.3174,0,0,-5.283,-5.2889,-5.2903,-5.2926,-5.2972,-5.301,-5.3063,-5.3112,-5.3137,-5.3175,-5.3218,-5.3284,-5.3271,-5.3297,-5.3303,-5.3338,-5.3404,-5.3319,-5.3319,-5.3331,-5.3487,-5.3496,-5.3508,-5.3399,-5.3401,-5.3403,-5.3483,0,-5.2907,-5.3001,-5.3013,-5.3096,-5.3141,-5.3138,-5.3184,-5.3217,-5.3234,-5.3274,-5.3292,-5.3337,-5.3318,-5.3334,-5.3369,-5.3388,-5.3434,-5.3383,-5.3438,-5.344,-5.3425,-5.3522,-5.3532,-5.3605,-5.3494,-5.3496,-5.3497,0,-5.3009,-5.305,-5.3138,-5.3178,-5.3197,-5.3239,-5.3284,-5.3323,-5.3361,-5.337,-5.3402,-5.3403,-5.3457,-5.3425,-5.3499,-5.3464,-5.3488,-5.3501,-5.3504,-5.3507,-5.347,-5.3525,-5.3629,-5.3639,-5.3514,-5.3512,-5.3511,0,-5.3061,-5.3139,-5.3201,-5.3222,-5.3271,-5.33,-5.3321,-5.3357,-5.3385,-5.3425,-5.3443,-5.3489,-5.3513,-5.3548,-5.3562,-5.3538,-5.3635,-5.3604,-5.3642,-5.3642,-5.366,-5.3658,-5.3766,-5.368,-5.368,-5.368,-5.368,0,-5.3144,-5.3198,-5.3225,-5.3263,-5.3323,-5.3337,-5.3395,-5.3416,-5.3448,-5.3489,-5.349,-5.3528,-5.3545,-5.3586,-5.3597,-5.3656,-5.3668,-5.3676,-5.3677,-5.3674,-5.3673,-5.3687,-5.3681,-5.3683,-5.3682,-5.3682,-5.3681,0,-5.3211,-5.3232,-5.33,-5.3342,-5.3354,-5.3395,-5.3431,-5.3467,-5.3485,-5.3537,-5.355,-5.3577,-5.3626,-5.3644,-5.3703,-5.371,-5.3777,-5.3776,-5.3765,-5.3764,-5.3801,-5.3796,-5.392,-5.3936,-5.3842,-5.3843,-5.3843,0,-5.3261,-5.3302,-5.3349,-5.3378,-5.3401,-5.3446,-5.3476,-5.3492,-5.3522,-5.3569,-5.36,-5.3649,-5.3688,-5.3766,-5.379,-5.3836,-5.3834,-5.3875,-5.384,-5.3836,-5.3832,-5.3828,-5.3831,-5.3879,-5.388,-5.3881,-5.3882,0,-5.3347,-5.3356,-5.3399,-5.3446,-5.3482,-5.352,-5.3556,-5.3579,-5.3601,-5.3635,-5.3685,-5.3716,-5.3778,-5.3826,-5.3873,-5.3894,-5.3891,-5.3893,-5.3904,-5.3899,-5.389,-5.3893,-5.3779,-5.3889,-5.3888,-5.3888,-5.3888,-5.3887,-5.3406,-5.3442,-5.3481,-5.3529,-5.3558,-5.3593,-5.3629,-5.3652,-5.3695,-5.3746,-5.3754,-5.3807,-5.3845,-5.3907,-5.3931,-5.3973,-5.3962,-5.3978,-5.3982,-5.3985,-5.3986,-5.3886,-5.3982,-5.3982,-5.3982,-5.3982,-5.3982,0,-5.349,-5.3515,-5.356,-5.3611,-5.3649,-5.3646,-5.3686,-5.3718,-5.3765,-5.3801,-5.3841,-5.3899,-5.3946,-5.3975,-5.4022,-5.405,-5.405,-5.4062,-5.4058,-5.4063,-5.3995,-5.3979,-5.4061,-5.4061,-5.4061,-5.4061,-5.4061,-5.4061,-5.3538,-5.3598,-5.3612,-5.3688,-5.3713,-5.3766,-5.379,-5.3821,-5.385,-5.3915,-5.3954,-5.3974,-5.4006,-5.4056,-5.4099,-5.4107,-5.4123,-5.4135,-5.4141,-5.4076,-5.4068,-5.406,-5.4045,-5.4139,-5.414,-5.4206,-5.4206,-5.4207]},{"header":{"parameterUnit":"m.s-1","parameterCategory":1,"la1":30.2991,"la2":30.254,"lo1":-89.0895,"lo2":-89.0444,"dy":0.0017,"dx":0.0017,"nx":28,"ny":28,"refTime":"2025-11-30T03:00:00:Z","depth":0,"parameterNumber":3,"parameterNumberName":"V-component_of_WINDS"},"data":[0,0,0,0,0,0,0,0,0,0,0,0,0,0,0,0,0,0,0,0,0,0,0,0,0,0,0,0,0,0,0,0,0,0,0,0,0,0,0,0,0,0,0,0,0,0,0,0,0,0,0,0,0,0,0,0,0,0,3.2981,3.2982,0,3.3027,3.3028,3.3028,3.3039,3.3039,3.3039,3.3039,3.3082,3.3084,3.3085,0,0,0,0,0,0,0,0,0,0,0,0,0,3.2901,3.2902,3.2981,3.2982,3.2982,3.3027,3.3028,3.3028,3.3039,3.3039,3.3039,3.3038,3.3082,3.3084,3.3085,0,0,0,0,0,0,0,0,0,0,0,0,0,3.294,3.2902,3.2981,3.2993,3.2995,3.3027,3.3028,3.3029,3.304,3.3039,3.3039,3.3038,3.3081,3.3083,3.3085,3.3108,0,0,3.3092,3.3093,0,0,0,0,0,0,0,0,3.2938,3.2943,3.2991,3.2992,3.2994,3.3027,3.3016,3.3055,3.304,3.3022,3.3039,3.3038,3.3064,3.3068,3.3077,3.311,3.3112,3.3092,3.3094,3.3095,3.3095,0,0,0,0,0,0,0,3.2935,3.2941,3.2999,3.2991,3.2994,3.2996,3.3001,3.3023,3.3045,3.3024,3.3025,3.303,3.3065,3.3075,3.3078,3.3112,3.3092,3.3094,3.3095,3.3096,3.3168,3.3168,0,0,0,0,0,0,3.293,3.2939,3.2998,3.3001,3.2964,3.2998,3.3003,3.3017,3.3045,3.3049,3.3031,3.3031,3.3072,3.3076,3.308,3.3109,3.3094,3.3097,3.3098,3.3167,3.3168,3.3169,0,0,0,0,0,0,3.2929,3.2936,3.2996,3.297,3.2978,3.3,3.3015,3.3018,3.3028,3.305,3.3054,3.3037,3.3071,3.3077,3.3102,3.3111,3.3098,3.3099,3.3167,3.3167,3.3168,3.3167,0,0,0,0,0,0,3.2926,3.2935,3.2944,3.297,3.2979,3.3017,3.3015,3.3019,3.3032,3.3033,3.3057,3.3061,3.3071,3.3098,3.3104,3.3114,3.3101,3.3166,3.3167,3.3168,3.3166,3.3168,3.3169,0,0,0,0,0,3.2923,3.294,3.2944,3.2951,3.2991,3.3018,3.3023,3.3036,3.3033,3.3042,3.3057,3.306,3.3109,3.3101,3.3107,3.3117,3.3165,3.3167,3.3168,3.3166,3.3168,3.3169,0,0,0,0,0,0,3.2912,3.2944,3.2948,3.2975,3.2994,3.302,3.3031,3.3037,3.3056,3.3056,3.307,3.3076,3.31,3.3111,3.3101,3.3142,3.3137,3.314,3.3133,3.3135,3.3136,3.3133,3.3103,0,0,0,0,0,3.2913,3.2934,3.2959,3.298,3.299,3.3009,3.3021,3.303,3.305,3.3057,3.3073,3.3092,3.3111,3.3124,3.3143,3.3168,3.3174,3.3179,3.318,3.3181,3.3183,3.3199,3.3202,3.3173,3.3173,3.3173,0,0,3.2915,3.2935,3.2946,3.2978,3.2994,3.3014,3.3015,3.3036,3.3051,3.306,3.3085,3.3098,3.3119,3.3145,3.3157,3.3155,3.3193,3.3183,3.3184,3.3185,3.3201,3.3203,3.3206,3.3174,3.3174,3.3174,0,0,3.2928,3.2945,3.2965,3.2981,3.3006,3.3019,3.3024,3.305,3.3059,3.3085,3.3093,3.3111,3.3144,3.316,3.3172,3.3194,3.3198,3.32,3.3207,3.3222,3.3224,3.3226,3.3235,3.3238,3.3202,3.3202,3.3202,0,3.2926,3.2958,3.2974,3.2995,3.301,3.3021,3.3041,3.3056,3.3085,3.3095,3.3093,3.3137,3.3152,3.3182,3.3188,3.3197,3.3203,3.3197,3.3223,3.3225,3.3227,3.3236,3.3239,3.3202,3.3202,3.3202,3.3202,0,3.2955,3.2977,3.299,3.3021,3.3037,3.3057,3.3076,3.309,3.3098,3.3112,3.3138,3.3157,3.3182,3.3189,3.3196,3.3221,3.322,3.322,3.3216,3.323,3.3238,3.3241,3.3202,3.3202,3.3202,3.3202,0,0,3.2961,3.3002,3.3007,3.3021,3.3051,3.3068,3.3089,3.3115,3.3127,3.3147,3.3166,3.3196,3.3197,3.3211,3.322,3.3234,3.3252,3.3233,3.3233,3.3236,3.3281,3.3281,3.3285,3.3255,3.3256,3.3256,3.328,0,3.2978,3.3019,3.3035,3.3067,3.3088,3.3101,3.312,3.314,3.3153,3.3173,3.3187,3.3209,3.3208,3.3217,3.3231,3.3246,3.3261,3.3245,3.3272,3.3273,3.3267,3.3289,3.3288,3.3309,3.3283,3.3284,3.3284,0,3.3003,3.3026,3.3062,3.3091,3.31,3.3117,3.3143,3.3162,3.3185,3.3194,3.3211,3.322,3.3244,3.3238,3.3271,3.326,3.3272,3.3282,3.3283,3.3286,3.3279,3.3292,3.3316,3.332,3.3289,3.3289,3.3288,0,3.3005,3.3045,3.3072,3.3084,3.3118,3.313,3.3145,3.3168,3.3183,3.3205,3.3215,3.3239,3.3252,3.3271,3.3286,3.3281,3.3318,3.3313,3.3326,3.3325,3.3332,3.3332,3.3359,3.334,3.334,3.334,3.334,0,3.3023,3.3044,3.3073,3.309,3.3114,3.3133,3.3156,3.3172,3.3193,3.3212,3.3224,3.3242,3.3261,3.3281,3.3294,3.3319,3.3325,3.3333,3.3336,3.3332,3.3331,3.334,3.3339,3.3341,3.3341,3.334,3.334,0,3.3028,3.3049,3.3079,3.311,3.3119,3.3136,3.3162,3.3178,3.3194,3.3218,3.3225,3.3249,3.3274,3.3291,3.3322,3.3331,3.3359,3.3361,3.3351,3.3353,3.3365,3.3363,3.3398,3.3404,3.3381,3.3381,3.3382,0,3.3038,3.3055,3.3089,3.3104,3.312,3.3143,3.3159,3.3179,3.3195,3.3224,3.3237,3.3264,3.3285,3.3325,3.3344,3.3369,3.3372,3.3383,3.3376,3.3372,3.3373,3.3372,3.3374,3.3383,3.3384,3.3384,3.3384,0,3.3054,3.3064,3.3088,3.3116,3.3135,3.3158,3.318,3.3191,3.3215,3.3232,3.3259,3.3277,3.331,3.3336,3.3363,3.3378,3.3385,3.3386,3.3391,3.3387,3.3381,3.3385,3.3355,3.3385,3.3385,3.3385,3.3385,3.3385,3.3062,3.3079,3.3106,3.3133,3.3153,3.3174,3.3192,3.321,3.3234,3.3264,3.3273,3.3301,3.3326,3.3363,3.3378,3.34,3.34,3.3405,3.3407,3.3408,3.3409,3.3378,3.3405,3.3405,3.3405,3.3405,3.3405,0,3.3079,3.3098,3.3123,3.3155,3.3176,3.3184,3.3209,3.3226,3.3251,3.3274,3.3297,3.3328,3.3354,3.3377,3.3404,3.3417,3.3421,3.3423,3.3422,3.3426,3.3407,3.3401,3.342,3.342,3.342,3.342,3.342,3.342,3.3091,3.312,3.3133,3.3173,3.3191,3.322,3.3235,3.3255,3.3274,3.3309,3.3331,3.3346,3.337,3.3399,3.3423,3.3429,3.3438,3.344,3.3447,3.3429,3.3427,3.3425,3.342,3.3442,3.3442,3.3464,3.3464,3.3464]}]]